Regional Weather Roundup
Issued by NWS

Home | Current Version | Previous Version | Graphics & Text | Print | Product List | Glossary On
Versions: 1 2 3 4 5 6 7 8 9 10 11 12 13 14 15 16 17 18 19 20 21 22 23 24 25 26 27 28 29 30 31 32 33 34 35 36 37 38 39 40 41 42 43 44 45 46 47 48 49 50
000
ASUS43 KLSX 281159
RWRMO

WEATHER SUMMARY FOR MISSOURI
NATIONAL WEATHER SERVICE SPRINGFIELD MO
700 AM CDT THU MAY 28 2015

NOTE: "FAIR" INDICATES FEW OR NO CLOUDS BELOW 12,000 FEET WITH NO
       SIGNIFICANT WEATHER AND/OR OBSTRUCTIONS TO VISIBILITY.
       CURRENT SKY AND/OR WEATHER CONDITIONS ARE NOT AVAILABLE FOR
       CHILLICOTHE AND FARMINGTON.

MOZ001>031-035>038-043-044-053-054-281300-
...NORTHERN AND WESTERN MISSOURI...

CITY           SKY/WX    TMP DP  RH WIND       PRES   REMARKS
KANSAS CTY INT LGT RAIN  66  57  72 SW14      30.12R
6HR MIN TEMP:  65; 6HR MAX TEMP:  69; 6HR PCP: TRACE;

KANSAS C DTWN  CLOUDY    69  56  62 SW13      30.11R THUNDER
6HR MIN TEMP:  65; 6HR MAX TEMP:  70; 6HR PCP: TRACE;

LEE`S SUMMIT   CLOUDY    67  57  70 SE7       30.09S
6HR MIN TEMP:  65; 6HR MAX TEMP:  69;

ST JOSEPH      CLOUDY    66  57  72 S3        30.08S
6HR MIN TEMP:  60; 6HR MAX TEMP:  67; 6HR PCP: TRACE;

KIRKSVILLE     PTSUNNY   64  59  83 SE9       30.16R
6HR MIN TEMP:  58; 6HR MAX TEMP:  64;


$$
MOZ066>068-077>081-088>096-101>105-281300-
...SOUTHWEST MISSOURI...

CITY           SKY/WX    TMP DP  RH WIND       PRES   REMARKS
SPRINGFIELD    MOSUNNY   68  65  90 SE8       30.11R
6HR MIN TEMP:  66; 6HR MAX TEMP:  71;

JOPLIN         CLOUDY    67  63  87 E3        30.10R
6HR MIN TEMP:  64; 6HR MAX TEMP:  69;


$$
MOZ032>034-039>042-045>050-055>058-069>072-281300-
...CENTRAL MISSOURI...

CITY           SKY/WX    TMP DP  RH WIND       PRES   REMARKS
COLUMBIA       PTSUNNY   65  58  78 SE9       30.13R
6HR MIN TEMP:  62; 6HR MAX TEMP:  66;

JEFFERSON CITY PTSUNNY   63  59  87 SE6       30.12R
6HR MIN TEMP:  60; 6HR MAX TEMP:  63;

ROLLA          MOSUNNY   63  61  93 E8        30.13R
6HR MIN TEMP:  61; 6HR MAX TEMP:  65;

SEDALIA        CLOUDY    65  58  78 SE7       30.12R
6HR MIN TEMP:  63; 6HR MAX TEMP:  66;

OSAGE BEACH    MOSUNNY   63  59  88 E6        30.12R

$$
MOZ051-052-059>065-281300-
...EAST CENTRAL MISSOURI...

CITY           SKY/WX    TMP DP  RH WIND       PRES   REMARKS
ST LOUIS INTL  PTSUNNY   67  58  72 E5        30.16R
6HR MIN TEMP:  62; 6HR MAX TEMP:  69;

SPIRIT OF STL  SUNNY     61  60  97 CALM      30.14S
6HR MIN TEMP:  57; 6HR MAX TEMP:  61;

ST CHARLES     SUNNY     64  60  87 NE5       30.15R
6HR MIN TEMP:  58; 6HR MAX TEMP:  64;


$$
MOZ072>076-082>087-097>100-106>115-281300-
...SOUTH CENTRAL AND SOUTHEAST MISSOURI...

CITY           SKY/WX    TMP DP  RH WIND       PRES   REMARKS
CAPE GIRARDEAU MOSUNNY   69  68  96 CALM      30.16R
6HR MIN TEMP:  66; 6HR MAX TEMP:  70;

FARMINGTON     SUNNY     63  63 100 E3        30.20R
6HR MIN TEMP:  61; 6HR MAX TEMP:  66;

POPLAR BLUFF   CLOUDY    68  66  93 CALM      30.14R FOG
6HR MIN TEMP:  65; 6HR MAX TEMP:  68;

WEST PLAINS    FOG       67  66  97 SE3       30.16R VSB 1/4
6HR MIN TEMP:  66; 6HR MAX TEMP:  69;


$$


USA.gov is the U.S. government's official web portal to all federal, state and local government web resources and services.